Terminal Aerodrome Forecast
Issued by NWS

Home | Current Version | Previous Version | Text Only | Print | Product List | Glossary On
Versions: 1 2 3 4 5 6 7 8 9 10 11 12 13 14
000
FTUS42 TJSJ 012300 RRA
TAFKPK
TAF
TKPK 012340Z 0200/0224 06012KT P6SM VCSH SCT018
     FM021300 06018KT P6SM FEW018
      AMD NOT SKED 0202/0211=

USA.gov is the U.S. government's official web portal to all federal, state and local government web resources and services.